THOR ABLESTAR DEB, 125

Orbit data source: Space-Track

THOR ABLESTAR DEB, 125 is space debris in LEO originally from a launch on Thu, 29 Jun 1961 UTC launched from the Air Force Eastern Test Range (AFETR). Debris objects in space refer to the collection of defunct objects orbiting the Earth. Examples of debris include non-operational satellites, rocket bodies, and fragments generated from explosions, collisions, or faulty payload assembly.

Loading next visibility...
Identifier
125, 1961-015K
Orbit
LEO
Country
Flag of USUS
Related business
Manufacturer
Unknown
Mission
Spacecraft
Bus & Motor
Unknown
Mass
Unknown
Launch date (UTC)
1961-06-29 (65 years ago)
Launch vehicle
Unknown
Launch site
Air Force Eastern Test Range (AFETR)
Object type
Payload
Rocket body
Debris
Shape & HBR
Unknown shape, 0.1 m
Radar Cross Section
Small (<0.1 m²)

Expand to show TLE details & history
Last TLE update: 1 day ago

TLE from 1 day ago
0 THOR ABLESTAR DEB
1   125U 61015K   26036.56095602  .00000571  00000-0  37625-3 0  9990
2   125  66.8740 258.7645 0070913 165.7097 194.6019 14.07596864298732
Epoch: 2026-02-05T13:27Z
TLE epoch observation values (Epoch: 2026-02-05T13:27:46.600Z)
Latitude
-0.00005°
Longitude
-78.89111°
Altitude
919.456 km
Speed
7.367 km/s
True Right ascension
17h 15m 03s
True Declination
0° 00' 00"
Sunlit
Object was in daylight at epoch
Visualization orbit readout
Latitude
Unknown
Longitude
Unknown
Altitude
Unknown
Speed
Unknown
Apparent Right ascension
Unknown
Apparent Declination
Unknown
Sunlit
N/A
Visualization observer readout
Local Sidereal Time
15:36:41
Azimuth
Unknown
Elevation
Unknown
Doppler factor
Unknown
Orbital elements
Apogee altitude
917.349 km
Perigee altitude
814.609 km
Semi-major axis
7,244.116 km
Eccentricity
0.00709
Inclination
66.874°
RAAN
258.7645°
Arg. of periapsis
165.7097°
True anomaly
194.39878°
Mean anomaly
194.6019°
Eccentric anomaly
194.50017°
Mean motion
3.52018 °/min
Orbital period
102.27 mins
BSTAR
0.00037625
Loading maneuver chart data...
Computing Atmospheric mass density...

Documentation

Showing up to 5 results
|